View from above orbital plane
|
View from above satellite
|
Ground track
|
The orbit data is extracted from the following two-line orbital elements,
1 00053U 60009E 21023.44537982 -.00000103 00000-0 -17126-3 0 9999
2 00053 47.2773 300.5730 0100426 10.9991 349.2964 12.17252497695366
Epoch (UTC): | 23 January 2021 10:41:20 |
Eccentricity: | 0.0100426 |
inclination: | 47.2773° |
perigee height: | 1524 km |
apogee height: | 1684 km |
right ascension of ascending node: | 300.5730° |
argument of perigee: | 10.9991° |
revolutions per day: | 12.17252497 |
mean anomaly at epoch: | 349.2964° |
orbit number at epoch: | 69536 |
The dashed part of the orbit path shows where the satellite is in the earth's shadow,
|
|